Home   Weather   Saarbrücken   Past weeks

Flag for Germany Past Weather in Saarbrücken, Saarland, Germany — Yesterday and Last 2 Weeks

Now
27 °F

Passing clouds.


Feels Like: 16 °F
Forecast: 20 / 27 °F
Wind: 13 mph from Northeast

Location: Saarbruecken / Ensheim

Current Time: Jan 17, 2017 at 6:23:45 pm

Latest Report: Jan 17, 2017 at 5:50 pm


Visibility: N/A

Pressure: 30.48 "Hg

Humidity: 69%

Dew Point: 18 °F

Location of SaarbrückenLocation

Past Weather in Saarbrücken — Graph

°F

Saarbrücken Temperature Yesterday

Maximum temperature yesterday: 32 °F (at 1:50 pm)
Minimum temperature yesterday: 19 °F (at 7:20 am)
Average temperature yesterday: 25 °F

High & Low Weather Summary for the Past Weeks

 TemperatureHumidityPressure
High41 °F (Jan 11, 8:50 pm)100% (Jan 2, 5:20 pm)30.69 "Hg (Jan 2, 5:20 pm)
Low12 °F (Jan 7, 2:50 am)51% (Jan 5, 1:50 pm)29.27 "Hg (Jan 12, 10:50 pm)
Average30 °F88%30.15 "Hg
* Reported Jan 2 5:20 pm — Jan 17 5:20 pm, Saarbrücken, Weather by CustomWeather, © 2017

Note: Actual official high and low records may vary slightly from our data, if they occured in-between our weather recording intervals... More about our weather records

Advertising

Saarbrücken Weather History for the Previous 24 Hours

Scroll right to see more
 ConditionsComfort  
Time TempWeatherWind HumidityBarometerVisibility
5:20 pm
Tue, Jan 17
28 °FPassing clouds.13 mph59%30.48 "HgN/A
4:50 pm28 °FScattered clouds.15 mph59%30.48 "HgN/A
4:20 pm28 °FScattered clouds.15 mph59%30.48 "HgN/A
3:50 pm30 °FScattered clouds.13 mph55%30.48 "HgN/A
3:20 pm28 °FScattered clouds.13 mph59%30.45 "HgN/A
2:50 pm30 °FScattered clouds.15 mph55%30.45 "HgN/A
2:20 pm28 °FScattered clouds.15 mph59%30.45 "HgN/A
1:50 pm30 °FScattered clouds.13 mph59%30.45 "HgN/A
1:20 pm28 °FPartly sunny.14 mph59%30.48 "HgN/A
12:50 pm28 °FPartly sunny.15 mph59%30.48 "HgN/A
12:20 pm28 °FPartly sunny.15 mph59%30.48 "HgN/A
11:50 am28 °FPartly sunny.13 mph64%30.48 "HgN/A
11:20 am28 °FScattered clouds.15 mph59%30.48 "HgN/A
10:50 am27 °FPassing clouds.13 mph69%30.48 "HgN/A
10:20 am27 °FPassing clouds.14 mph69%30.48 "HgN/A
9:50 am25 °FPartly sunny.16 mph74%30.48 "HgN/A
9:20 am25 °FPartly sunny.13 mph69%30.48 "HgN/A
8:50 am25 °FPartly sunny.13 mph74%30.48 "HgN/A
8:20 am23 °FPartly sunny.13 mph80%30.45 "HgN/A
7:50 am23 °FPassing clouds.14 mph80%30.45 "HgN/A
7:20 am23 °FOvercast.15 mph80%30.45 "HgN/A
6:50 am23 °FOvercast.18 mph80%30.45 "HgN/A
6:20 am23 °FOvercast.15 mph80%30.42 "HgN/A
5:50 am23 °FOvercast.16 mph80%30.42 "HgN/A
5:20 am23 °FPassing clouds.16 mph80%30.42 "HgN/A
4:50 am23 °FPassing clouds.13 mph80%30.42 "HgN/A
4:20 am23 °FPassing clouds.9 mph86%30.42 "HgN/A
3:50 am23 °FPassing clouds.12 mph86%30.39 "HgN/A
3:20 am21 °FLow clouds.13 mph86%30.39 "HgN/A
2:50 am21 °FPassing clouds.12 mph86%30.39 "HgN/A
2:20 am21 °FClear.9 mph86%30.39 "HgN/A
1:50 am21 °FClear.9 mph86%30.36 "HgN/A
1:20 am21 °FClear.7 mph86%30.36 "HgN/A
12:50 am21 °FClear.6 mph86%30.36 "HgN/A
12:20 am23 °FClear.8 mph80%30.36 "HgN/A
11:50 pm
Mon, Jan 16
21 °FClear.8 mph86%30.36 "HgN/A
11:20 pm21 °FClear.9 mph86%30.36 "HgN/A
10:50 pm21 °FClear.7 mph86%30.36 "Hg10 mi
10:20 pm23 °FPassing clouds.8 mph80%30.36 "HgN/A
9:50 pm23 °FClear.9 mph86%30.33 "Hg10 mi
9:20 pm23 °FClear.7 mph80%30.33 "Hg10 mi
8:50 pm23 °FClear.7 mph86%30.33 "Hg10 mi
8:20 pm25 °FPassing clouds.8 mph80%30.30 "HgN/A
7:50 pm25 °FPassing clouds.8 mph80%30.30 "HgN/A
7:20 pm25 °FPassing clouds.7 mph80%30.30 "HgN/A
6:50 pm25 °FPassing clouds.7 mph80%30.27 "HgN/A
6:20 pm25 °FPassing clouds.7 mph80%30.27 "HgN/A
Weather by CustomWeather, © 2017

See weather overviewHow to use our weather pages